• In Hungary
  • List of Countries
  • For 7 days
  • Water Temperature
  • Satellite Maps
  • Weather Map
  • News
  • Weather Widgets
  • user-avatar
    Login

    Hourly Weather Pomorsko

    Today, 20 September, Thursday

    Time Temperature Precipitation Wind Pressure Humidity
    00:00 +21°C° 0.1 mm 2 mps 759 mmHg 70%
    01:00 +20°C° 0.1 mm 2 mps 759 mmHg 72%
    02:00 +20°C° 0 mm 2 mps 759 mmHg 74%
    03:00 +20°C° 0 mm 2 mps 759 mmHg 75%
    04:00 +19°C° 0 mm 2 mps 759 mmHg 76%
    05:00 +20°C° 0 mm 2 mps 759 mmHg 76%
    06:00 +20°C° 0 mm 2 mps 760 mmHg 75%
    07:00 +20°C° 0 mm 2 mps 760 mmHg 74%
    08:00 +23°C° 0 mm 2 mps 760 mmHg 68%
    09:00 +25°C° 0 mm 2 mps 760 mmHg 61%
    10:00 +27°C° 0 mm 2 mps 760 mmHg 54%
    11:00 +28°C° 0 mm 2 mps 760 mmHg 51%
    12:00 +29°C° 0 mm 3 mps 759 mmHg 47%
    13:00 +30°C° 0 mm 3 mps 759 mmHg 43%
    14:00 +30°C° 0 mm 3 mps 759 mmHg 43%
    15:00 +30°C° 0 mm 3 mps 758 mmHg 43%
    16:00 +30°C° 0 mm 3 mps 758 mmHg 42%
    17:00 +28°C° 0 mm 2 mps 758 mmHg 48%
    18:00 +27°C° 0 mm 2 mps 758 mmHg 53%
    19:00 +25°C° 0 mm 2 mps 758 mmHg 59%
    20:00 +24°C° 0 mm 2 mps 758 mmHg 60%
    21:00 +24°C° 0 mm 2 mps 757 mmHg 61%
    22:00 +23°C° 0 mm 2 mps 757 mmHg 62%
    23:00 +23°C° 0 mm 2 mps 757 mmHg 63%

    Tomorrow, 21 September, Friday

    Time Temperature Precipitation Wind Pressure Humidity
    00:00 +21°C° 0 mm 3 mps 757 mmHg 64%
    01:00 +21°C° 0 mm 3 mps 756 mmHg 64%
    02:00 +21°C° 0 mm 3 mps 756 mmHg 65%
    03:00 +20°C° 0 mm 3 mps 756 mmHg 66%
    04:00 +20°C° 0 mm 3 mps 755 mmHg 67%
    05:00 +20°C° 0 mm 3 mps 755 mmHg 67%
    06:00 +21°C° 0 mm 3 mps 755 mmHg 67%
    07:00 +21°C° 0 mm 4 mps 754 mmHg 66%
    08:00 +23°C° 0 mm 4 mps 754 mmHg 59%
    09:00 +26°C° 0 mm 5 mps 754 mmHg 51%
    10:00 +28°C° 0 mm 5 mps 753 mmHg 44%
    11:00 +29°C° 0 mm 6 mps 753 mmHg 40%
    12:00 +30°C° 0 mm 6 mps 752 mmHg 36%
    13:00 +32°C° 0 mm 7 mps 751 mmHg 32%
    14:00 +32°C° 0 mm 6 mps 751 mmHg 33%
    15:00 +32°C° 0 mm 6 mps 751 mmHg 35%
    16:00 +30°C° 0 mm 6 mps 751 mmHg 37%
    17:00 +27°C° 0 mm 6 mps 752 mmHg 44%
    18:00 +22°C° 0 mm 7 mps 753 mmHg 52%
    19:00 +18°C° 0 mm 7 mps 754 mmHg 60%
    20:00 +17°C° 0.1 mm 6 mps 755 mmHg 58%
    21:00 +16°C° 0.1 mm 5 mps 756 mmHg 57%
    22:00 +16°C° 0.1 mm 3 mps 756 mmHg 55%
    23:00 +16°C° 0 mm 3 mps 757 mmHg 54%

    Day after tomorrow, 22 September, Saturday

    Time Temperature Precipitation Wind Pressure Humidity
    00:00 +15°C° 0 mm 4 mps 757 mmHg 52%
    01:00 +15°C° 0 mm 4 mps 757 mmHg 51%
    02:00 +14°C° 0 mm 4 mps 758 mmHg 51%
    03:00 +14°C° 0 mm 4 mps 758 mmHg 51%
    04:00 +14°C° 0 mm 4 mps 758 mmHg 51%
    05:00 +13°C° 0 mm 4 mps 758 mmHg 52%
    06:00 +13°C° 0 mm 5 mps 759 mmHg 53%
    07:00 +13°C° 0 mm 5 mps 759 mmHg 54%
    08:00 +14°C° 0 mm 5 mps 759 mmHg 51%
    09:00 +15°C° 0 mm 6 mps 759 mmHg 48%
    10:00 +16°C° 0 mm 6 mps 759 mmHg 45%
    11:00 +17°C° 0 mm 6 mps 759 mmHg 42%
    12:00 +19°C° 0 mm 6 mps 759 mmHg 40%
    13:00 +19°C° 0 mm 6 mps 758 mmHg 37%
    14:00 +19°C° 0 mm 6 mps 758 mmHg 38%
    15:00 +19°C° 0 mm 6 mps 758 mmHg 39%
    16:00 +19°C° 0 mm 6 mps 758 mmHg 40%
    17:00 +17°C° 0 mm 5 mps 758 mmHg 42%
    18:00 +17°C° 0 mm 4 mps 759 mmHg 44%
    19:00 +15°C° 0 mm 4 mps 759 mmHg 47%
    20:00 +14°C° 0 mm 3 mps 759 mmHg 50%
    21:00 +14°C° 0 mm 3 mps 760 mmHg 53%
    22:00 +13°C° 0 mm 3 mps 760 mmHg 57%
    23:00 +12°C° 0 mm 3 mps 760 mmHg 59%

    23 September, Sunday

    Time Temperature Precipitation Wind Pressure Humidity
    00:00 +12°C° 0 mm 3 mps 760 mmHg 62%
    01:00 +11°C° 0 mm 3 mps 760 mmHg 64%
    02:00 +11°C° 0 mm 3 mps 760 mmHg 66%
    03:00 +10°C° 0 mm 3 mps 760 mmHg 68%
    04:00 +10°C° 0 mm 3 mps 760 mmHg 70%
    05:00 +10°C° 0 mm 3 mps 760 mmHg 69%
    06:00 +10°C° 0 mm 3 mps 759 mmHg 68%
    07:00 +10°C° 0 mm 3 mps 759 mmHg 67%
    08:00 +12°C° 0 mm 3 mps 759 mmHg 61%
    09:00 +13°C° 0 mm 3 mps 759 mmHg 55%
    10:00 +15°C° 0 mm 4 mps 759 mmHg 49%
    11:00 +17°C° 0 mm 4 mps 758 mmHg 47%
    12:00 +17°C° 0 mm 4 mps 757 mmHg 45%
    13:00 +18°C° 0 mm 4 mps 756 mmHg 43%
    14:00 +17°C° 0.1 mm 4 mps 755 mmHg 49%
    15:00 +17°C° 0.1 mm 4 mps 754 mmHg 56%
    16:00 +15°C° 0.1 mm 4 mps 752 mmHg 62%
    17:00 +15°C° 3.1 mm 4 mps 751 mmHg 71%
    18:00 +14°C° 3.1 mm 4 mps 750 mmHg 80%
    19:00 +13°C° 3.1 mm 4 mps 748 mmHg 88%
    20:00 +14°C° 3.3 mm 4 mps 746 mmHg 89%
    21:00 +15°C° 3.3 mm 5 mps 745 mmHg 89%
    22:00 +16°C° 3.3 mm 5 mps 743 mmHg 89%
    23:00 +17°C° 1.9 mm 6 mps 742 mmHg 88%

    24 September, Monday

    Time Temperature Precipitation Wind Pressure Humidity
    00:00 +17°C° 1.9 mm 6 mps 740 mmHg 87%
    01:00 +18°C° 1.9 mm 7 mps 739 mmHg 86%
    02:00 +16°C° 0.6 mm 7 mps 738 mmHg 82%
    03:00 +15°C° 0.6 mm 8 mps 738 mmHg 77%
    04:00 +12°C° 0.6 mm 8 mps 737 mmHg 73%
    05:00 +12°C° 0.1 mm 7 mps 737 mmHg 76%
    06:00 +12°C° 0.1 mm 7 mps 738 mmHg 79%
    07:00 +13°C° 0.1 mm 6 mps 738 mmHg 82%
    08:00 +11°C° 1 mm 8 mps 740 mmHg 81%
    09:00 +9°C° 1 mm 11 mps 742 mmHg 81%
    10:00 +9°C° 1 mm 13 mps 744 mmHg 80%
    11:00 +9°C° 0.4 mm 12 mps 746 mmHg 76%
    12:00 +11°C° 0.4 mm 11 mps 747 mmHg 72%
    13:00 +11°C° 0.4 mm 11 mps 749 mmHg 68%
    14:00 +11°C° 0.2 mm 11 mps 751 mmHg 66%
    15:00 +12°C° 0.2 mm 11 mps 752 mmHg 63%
    16:00 +12°C° 0.2 mm 11 mps 753 mmHg 61%
    17:00 +11°C° 0.2 mm 9 mps 754 mmHg 65%
    18:00 +10°C° 0.2 mm 8 mps 756 mmHg 70%
    19:00 +9°C° 0.2 mm 7 mps 757 mmHg 74%
    20:00 +9°C° 0 mm 7 mps 757 mmHg 75%
    21:00 +9°C° 0 mm 7 mps 758 mmHg 76%
    22:00 +8°C° 0 mm 7 mps 759 mmHg 76%
    23:00 +8°C° 0 mm 6 mps 760 mmHg 75%

    25 September, Tuesday

    Time Temperature Precipitation Wind Pressure Humidity
    00:00 +8°C° 0 mm 6 mps 760 mmHg 74%
    01:00 +8°C° 0 mm 6 mps 761 mmHg 73%
    02:00 +7°C° 0 mm 6 mps 761 mmHg 73%
    03:00 +7°C° 0 mm 6 mps 761 mmHg 74%
    04:00 +7°C° 0 mm 6 mps 762 mmHg 74%
    05:00 +7°C° 0.1 mm 5 mps 762 mmHg 77%
    06:00 +7°C° 0.1 mm 5 mps 762 mmHg 79%
    07:00 +7°C° 0.1 mm 5 mps 763 mmHg 81%
    08:00 +8°C° 0.2 mm 5 mps 763 mmHg 75%
    09:00 +9°C° 0.2 mm 6 mps 764 mmHg 69%
    10:00 +10°C° 0.2 mm 6 mps 765 mmHg 63%
    11:00 +11°C° 0.3 mm 6 mps 765 mmHg 59%
    12:00 +11°C° 0.3 mm 6 mps 765 mmHg 56%
    13:00 +13°C° 0.3 mm 6 mps 765 mmHg 53%
    14:00 +13°C° 0.1 mm 6 mps 765 mmHg 52%
    15:00 +13°C° 0.1 mm 6 mps 765 mmHg 51%
    16:00 +13°C° 0.1 mm 5 mps 766 mmHg 50%
    17:00 +12°C° 0 mm 4 mps 766 mmHg 56%
    18:00 +11°C° 0 mm 3 mps 766 mmHg 62%
    19:00 +10°C° 0 mm 2 mps 767 mmHg 67%
    20:00 +10°C° 0 mm 2 mps 767 mmHg 71%
    21:00 +10°C° 0 mm 2 mps 767 mmHg 74%
    22:00 +9°C° 0 mm 2 mps 767 mmHg 77%
    23:00 +9°C° 0 mm 2 mps 767 mmHg 81%
    Show more